Home > Weather > Kriens > Past weeks

Flag for Switzerland Past Weather in Kriens, Lucerne, Switzerland — Yesterday and Last 2 Weeks

Now
67 °F

Mild.


Feels Like: 67 °F
Forecast: 56 / 86 °F
Wind: 2 mph from West

Location: Giswil

Current Time: Jul 29, 2016 at 11:54:59 PM

Latest Report: Jul 29, 2016 at 10:00 PM


Visibility: N/A

Pressure: 29.98 "Hg

Humidity: 88%

Dew Point: 63 °F

Location of KriensLocation

Past Weather in Kriens — Graph

°F

Kriens Temperature Yesterday

Maximum temperature yesterday: 77 °F (at 3:00 PM)
Minimum temperature yesterday: 54 °F (at 6:00 AM)
Average temperature yesterday: 65 °F

High & Low Weather Summary for the Past Weeks

 TemperatureHumidityPressure
High88 °F (Jul 20, 5:00 PM)100% (Jul 16, 5:00 AM)30.39 "Hg (Jul 16, 5:00 AM)
Low44 °F (Jul 16, 6:00 AM)38% (Jul 20, 4:00 PM)29.89 "Hg (Jul 20, 7:00 PM)
Average67 °F80%30.10 "Hg
* Reported Jul 14 10:00 PM — Jul 29 10:00 PM, Kriens, Weather by CustomWeather, © 2016

Note: Actual official high and low records may vary slightly from our data, if they occured in-between our weather recording intervals... More about our weather records

Advertising

Kriens Weather History for the Previous 24 Hours

Scroll right to see more
 ConditionsComfort  
Time TempWeatherWind HumidityBarometerVisibility
10:00 PM
Fri, Jul 29
67 °FMild.2 mph88%29.98 "HgN/A
9:00 PM70 °FMild.2 mph85%29.96 "HgN/A
8:00 PM74 °FMild.2 mph77%29.93 "HgN/A
7:00 PM78 °FWarm.1 mph62%29.92 "HgN/A
6:00 PM78 °FWarm.1 mph59%29.92 "HgN/A
5:00 PM80 °FWarm.1 mph51%29.92 "HgN/A
4:00 PM80 °FWarm.2 mph53%29.93 "HgN/A
3:00 PM78 °FWarm.2 mph56%29.94 "HgN/A
2:00 PM78 °FWarm.3 mph55%29.95 "HgN/A
1:00 PM76 °FMild.3 mph57%29.97 "HgN/A
12:00 PM74 °FMild.2 mph62%29.99 "HgN/A
11:00 AM72 °FMild.2 mph67%30.01 "HgN/A
10:00 AM70 °FMild.1 mph72%30.03 "HgN/A
9:00 AM67 °FMild.1 mph78%30.05 "HgN/A
8:00 AM64 °FMild.1 mph92%30.06 "HgN/A
7:00 AM61 °FCool.2 mph98%30.06 "HgN/A
6:00 AM61 °FCool.2 mph97%30.06 "HgN/A
5:00 AM61 °FCool.No wind97%30.06 "HgN/A
4:00 AM61 °FCool.1 mph96%30.06 "HgN/A
2:00 AM62 °FCool.1 mph98%30.06 "HgN/A
1:00 AM63 °FMild.1 mph97%30.06 "HgN/A
12:00 AM64 °FMild.1 mph94%30.06 "HgN/A
11:00 PM
Thu, Jul 28
67 °FMild.1 mph91%30.04 "HgN/A
Weather by CustomWeather, © 2016

See weather overviewHow to use our weather pages